This is the latest recevied weather packets stored in our database for station/object N2ZVN. If no packets are shown the sender has not sent any weather packets the latest 10 day(s).
| Time | Temp. | Humidity | Pressure | Rain* | Wind** | Luminosity | Snow |
|---|---|---|---|---|---|---|---|
| 1777936415 | 21.67° C | 33% | 1003.4 hPa | 0 mm | - | 37 W/m² | - |
| 1777936111 | 21.67° C | 33% | 1003.3 hPa | 0 mm | - | 40 W/m² | - |
| 1777935809 | 21.67° C | 32% | 1003 hPa | 0 mm | - | 34 W/m² | - |
| 1777935508 | 21.67° C | 32% | 1003.2 hPa | 0 mm | - | 32 W/m² | - |
| 1777935203 | 22.22° C | 31% | 1003.2 hPa | 0 mm | - | 38 W/m² | - |
| 1777934901 | 22.22° C | 31% | 1003.2 hPa | 0 mm | - | 45 W/m² | - |
| 1777934598 | 22.22° C | 32% | 1003.3 hPa | 0 mm | - | 60 W/m² | - |
| 1777934295 | 22.22° C | 31% | 1003 hPa | 0 mm | - | 79 W/m² | - |
| 1777933990 | 22.22° C | 30% | 1002.9 hPa | 0 mm | - | 81 W/m² | - |
| 1777933687 | 22.22° C | 30% | 1003.1 hPa | 0 mm | - | 92 W/m² | - |
| 1777933384 | 22.22° C | 30% | 1002.8 hPa | 0 mm | - | 76 W/m² | - |
| 1777933082 | 22.78° C | 31% | 1003.1 hPa | 0 mm | - | 54 W/m² | - |
| 1777932778 | 22.78° C | 29% | 1003.2 hPa | 0 mm | - | 51 W/m² | - |
| 1777932475 | 22.78° C | 30% | 1003.1 hPa | 0 mm | - | 57 W/m² | - |
| 1777932172 | 23.33° C | 30% | 1003 hPa | 0 mm | - | 86 W/m² | - |
| 1777931869 | 22.78° C | 29% | 1002.9 hPa | 0 mm | - | 139 W/m² | - |
| 1777931566 | 23.33° C | 31% | 1003 hPa | 0 mm | - | 136 W/m² | - |
| 1777931262 | 23.33° C | 29% | 1003 hPa | 0 mm | - | 114 W/m² | - |
| 1777930958 | 23.33° C | 29% | 1003.2 hPa | 0 mm | - | 94 W/m² | - |
| 1777930655 | 22.78° C | 30% | 1003.1 hPa | 0 mm | - | 140 W/m² | - |
| 1777930352 | 23.33° C | 29% | 1003.2 hPa | 0 mm | - | 92 W/m² | - |
| 1777930049 | 23.33° C | 30% | 1003 hPa | 0 mm | - | 106 W/m² | - |
| 1777929745 | 23.33° C | 29% | 1003.2 hPa | 0 mm | - | 99 W/m² | - |
| 1777929443 | 23.33° C | 29% | 1003.3 hPa | 0 mm | - | 125 W/m² | - |
| 1777929139 | 23.33° C | 29% | 1003.3 hPa | 0 mm | - | 191 W/m² | - |
* Rain latest hour (hover to see other rain measurements)
** Current wind speed in m/s (hover to see current wind gust speed)